Torna al catalogo

STARLINK-31222

AttivoComunicazioniVLEO
NORAD 58828·PAYLOAD·🇺🇸 United States

Lanciato Jan 24, 2024 da Vandenberg Space Force Base

Loading…

Prossimi Passaggi (prossime 24 ore)

TLE

AggiornatoSource: CelesTrak SupGP

Epoca: Sep 14, 2026, 22:10 UTC

1 58828C 24017C   26257.92409722  .00024443  00000+0  72241-3 0  2574
2 58828  53.1596  43.4583 0001206  82.1442 345.5087 15.34368492    17

Traccia STARLINK-31222 in tempo reale con AllMySat

Download on the App Store